This demonstration page uses our WeatherBlox Daily Observations layout. Learn more.

Left ArrowRight Arrow

40.92945, -100.16068

Hourly Observations for October 12, 2018

Temp ( °F °C ) Dew Point ( °F °C ) Humidity (%) Winds ( mph kmh ) Pressure ( in mb ) Visibility ( mi km ) Precip ( " mm )
12:15 am 00:15 Cloudy with Rain 39 3.7 35 1.6 86 86 SSW 9 15 30.12 1020 10 16.0934 0.03 0.762
12:35 am 00:35 Cloudy with Light Rain 38 3.5 35 1.5 87 87 S 5 7 30.12 1020 10 16.0934 0.05 1.27
12:55 am 00:55 Cloudy with Light Rain 38 3.6 35 1.9 89 89 Calm 30.12 1020 10 16.0934 0.05 1.27
1:15 am 01:15 Cloudy with Drizzle 39 3.7 36 2 89 89 Calm 30.12 1020 10 16.0934 0.01 0.254
1:35 am 01:35 Cloudy 39 3.8 36 2 88 88 Calm 30.12 1020 10 16.0934 0.01 0.254
1:55 am 01:55 Cloudy 39 4 36 2.2 88 88 Calm 30.09 1019 10 16.0934 0.01 0.254
2:15 am 02:15 Cloudy 39 4.1 36 2.1 87 87 S 6 9 30.09 1019 10 16.0934 0 0
2:35 am 02:35 Cloudy 39 3.9 35 1.9 87 87 SSW 6 9 30.12 1020 10 16.0934 0 0
2:55 am 02:55 Cloudy 39 3.7 35 1.7 87 87 Calm 30.12 1020 10 16.0934 0 0
3:15 am 03:15 Cloudy 38 3.6 36 2 89 89 Calm 30.12 1020 10 16.0934 0 0
3:35 am 03:35 Cloudy 39 3.8 36 2.3 90 90 Calm 30.12 1020 10 16.0934 0 0
3:55 am 03:55 Cloudy 39 3.9 36 2 88 88 Calm 30.12 1020 10 16.0934 0 0
4:15 am 04:15 Cloudy 39 4 36 2 87 87 Calm 30.09 1019 10 16.0934 0 0
4:35 am 04:35 Cloudy 39 4 36 2.1 88 88 Calm 30.09 1019 10 16.0934 0 0
4:55 am 04:55 Cloudy 39 4 36 2 87 87 Calm 30.09 1019 10 16.0934 0 0
5:15 am 05:15 Cloudy 39 4 36 2.2 88 88 Calm 30.09 1019 10 16.0934 0 0
5:35 am 05:35 Cloudy 39 4 36 2.4 89 89 Calm 30.09 1019 10 16.0934 0 0
5:55 am 05:55 Cloudy with Light Rain 39 4 37 2.5 90 90 Calm 30.09 1019 10 16.0934 0 0
6:15 am 06:15 Cloudy with Rain 39 4 37 2.5 90 90 S 3 6 30.06 1018 10 16.0934 0 0
6:35 am 06:35 Cloudy with Drizzle 39 4 37 2.5 90 90 SSE 5 7 30.06 1018 10 16.0934 0 0
6:55 am 06:55 Cloudy with Light Rain 39 3.8 37 2.6 92 92 SE 6 9 30.03 1017 7 11.26538 0.02 0.508
7:15 am 07:15 Cloudy with Drizzle 39 3.7 37 2.5 92 92 ESE 3 6 30.03 1017 10 16.0934 0 0
7:35 am 07:35 Cloudy 39 3.8 37 2.6 92 92 SSW 5 7 30.06 1018 10 16.0934 0 0
7:55 am 07:55 Cloudy 39 3.9 37 2.6 91 91 S 5 7 30.06 1018 10 16.0934 0 0
8:15 am 08:15 Cloudy 39 4 37 2.8 92 92 WSW 3 6 30.06 1018 10 16.0934 0 0
8:35 am 08:35 Cloudy with Light Rain 39 4.1 37 3 93 93 W 5 7 30.06 1018 5 8.0467 0.01 0.254
8:55 am 08:55 Cloudy 40 4.3 38 3.1 92 92 W 6 9 30.09 1019 10 16.0934 0.01 0.254
9:15 am 09:15 Cloudy with Rain 39 4.1 37 3 93 93 W 7 11 30.09 1019 4 6.43736 0.02 0.508
9:35 am 09:35 Cloudy with Light Rain 40 4.4 38 3.1 91 91 W 6 9 30.09 1019 10 16.0934 0.03 0.762
9:55 am 09:55 Cloudy 40 4.6 38 3.3 91 91 W 6 9 30.09 1019 10 16.0934 0.03 0.762
10:15 am 10:15 Cloudy with Drizzle 41 5 38 3.6 91 91 W 8 13 30.09 1019 10 16.0934 0 0
10:35 am 10:35 Cloudy 42 5.3 39 3.9 91 91 W 9 15 30.09 1019 7 11.26538 0 0
10:55 am 10:55 Cloudy 42 5.5 39 3.9 90 90 W 8 13 30.09 1019 10 16.0934 0 0
11:15 am 11:15 Cloudy 43 6.1 40 4.5 90 90 W 8 13 30.09 1019 10 16.0934 0 0
11:35 am 11:35 Cloudy 44 6.4 40 4.5 88 88 W 8 13 30.09 1019 10 16.0934 0 0
11:55 am 11:55 Cloudy 46 7.5 41 4.8 83 83 WNW 12 19 30.06 1018 10 16.0934 0 0
12:15 pm 12:15 Cloudy 47 8.1 42 5.3 83 83 NW 13 20 30.03 1017 10 16.0934 0 0
12:35 pm 12:35 Cloudy 47 8.4 40 4.6 77 77 WNW 17 28 30.06 1018 10 16.0934 0 0
12:55 pm 12:55 Cloudy 47 8.5 40 4.3 75 75 NW 15 24 30.06 1018 10 16.0934 0 0
1:15 pm 13:15 Partly Cloudy 50 9.8 40 4.5 70 70 NW 14 22 30.03 1017 10 16.0934 0 0
1:35 pm 13:35 Mostly Cloudy 51 10.5 39 4.1 65 65 NW 12 19 30 1016 10 16.0934 0 0
1:55 pm 13:55 Partly Cloudy 51 10.8 36 2.3 56 56 WNW 18 30 30 1016 10 16.0934 0.01 0.254
2:15 pm 14:15 Mostly Cloudy 53 11.6 36 2.4 54 54 NW 14 22 29.97 1015 10 16.0934 0 0
2:35 pm 14:35 Mostly Cloudy 54 12.1 36 2.3 51 51 NW 14 22 29.97 1015 10 16.0934 0 0
2:55 pm 14:55 Partly Cloudy 54 12.4 34 1.1 46 46 NW 16 26 29.94 1014 10 16.0934 0 0
3:15 pm 15:15 Partly Cloudy 55 12.9 33 0.6 43 43 N 15 24 29.91 1013 10 16.0934 0 0
3:35 pm 15:35 Sunny 55 12.8 31 -0.7 40 40 NW 16 26 29.91 1013 10 16.0934 0 0
3:55 pm 15:55 Sunny 55 13 32 -0.2 41 41 NNW 12 19 29.88 1012 10 16.0934 0 0
4:15 pm 16:15 Sunny 55 13 31 -0.8 39 39 NNW 13 20 29.88 1012 10 16.0934 0 0
4:35 pm 16:35 Sunny 55 13 29 -1.4 37 37 NNW 8 13 29.88 1012 10 16.0934 0 0
4:55 pm 16:55 Sunny 56 13.1 30 -1.3 37 37 NW 9 15 29.91 1013 10 16.0934 0 0
5:15 pm 17:15 Sunny 56 13.2 30 -1.2 37 37 NNW 7 11 29.88 1012 10 16.0934 0 0
5:35 pm 17:35 Sunny 56 13.3 29 -1.6 36 36 NNW 5 7 29.88 1012 10 16.0934 0 0
5:55 pm 17:55 Sunny 56 13.3 30 -1.1 37 37 NW 3 6 29.88 1012 10 16.0934 0 0
6:10 pm 18:10 Sunny 55 13 29 -1.7 36 36 WNW 6 9 29.88 1012 10 16.0934 0 0
6:35 pm 18:35 Sunny 53 11.9 32 0 44 44 Calm 29.91 1013 10 16.0934 0 0
6:55 pm 18:55 Sunny 53 11.5 33 0.3 46 46 Calm 29.91 1013 10 16.0934 0 0
7:15 pm 19:15 Clear 51 10.3 33 0.4 51 51 Calm 29.91 1013 10 16.0934 0 0
7:35 pm 19:35 Clear 46 7.5 33 0.5 62 62 SE 3 6 29.94 1014 10 16.0934 0 0
7:55 pm 19:55 Clear 44 6.6 32 0 63 63 SE 5 7 29.94 1014 10 16.0934 0 0
8:15 pm 20:15 Clear 43 6.1 32 0.1 66 66 SE 5 7 29.94 1014 10 16.0934 0 0
8:35 pm 20:35 Clear 43 6 32 0 66 66 SSE 7 11 29.94 1014 10 16.0934 0 0
8:55 pm 20:55 Clear 42 5.3 32 0 69 69 SSE 6 9 29.97 1015 10 16.0934 0 0
9:15 pm 21:15 Clear 40 4.2 32 0 74 74 SSE 7 11 29.97 1015 10 16.0934 0 0
9:35 pm 21:35 Clear 40 4.3 32 -0.1 73 73 SSE 7 11 29.97 1015 10 16.0934 0 0
9:55 pm 21:55 Clear 40 4.3 31 -0.4 72 72 SSE 7 11 29.97 1015 10 16.0934 0 0
10:15 pm 22:15 Clear 38 3.1 31 -0.3 79 79 S 6 9 29.97 1015 10 16.0934 0 0
10:35 pm 22:35 Clear 38 3.6 31 -0.5 75 75 SSE 5 7 29.97 1015 10 16.0934 0 0
10:55 pm 22:55 Clear 37 3 31 -0.5 78 78 S 8 13 29.97 1015 10 16.0934 0 0
11:15 pm 23:15 Clear 38 3.3 31 -0.6 76 76 S 7 11 29.97 1015 10 16.0934 0 0
11:35 pm 23:35 Clear 39 4 32 -0.1 75 75 S 7 11 29.97 1015 10 16.0934 0 0
11:55 pm 23:55 Clear 39 4 32 -0.1 75 75 S 6 9 29.97 1015 10 16.0934 0 0

Powered by AerisWeather